| time (UTC) | temp F | wind direction | speed knots | gust knots | rain 1hr in | rain 24hr in | rain mn in | humidity % | barometer mb |
| 20260505064520 | 60 | 196 | 1.7 | 6.1 | 0.00 | 0.02 | 0.01 | 74 | 1022.6 |
| 20260505063020 | 60 | 246 | 2.6 | 6.1 | 0.00 | 0.02 | 0.01 | 74 | 1022.5 |
| 20260505061530 | 61 | 199 | 3.5 | 7.8 | 0.00 | 0.02 | 0.01 | 73 | 1022.4 |
| 20260505060026 | 61 | 188 | 4.3 | 7.0 | 0.00 | 0.02 | 0.01 | 72 | 1022.3 |
| 20260505054517 | 61 | 240 | 2.6 | 7.0 | 0.00 | 0.02 | 0.01 | 73 | 1022.2 |
| 20260505053017 | 61 | 243 | 3.5 | 7.8 | 0.00 | 0.02 | 0.01 | 73 | 1022.1 |
| 20260505051517 | 61 | 234 | 3.5 | 7.0 | 0.00 | 0.02 | 0.01 | 72 | 1021.9 |
| 20260505041525 | 62 | 224 | 1.7 | 5.2 | 0.00 | 0.02 | 0.01 | 72 | 1021.6 |
| 20260505040015 | 62 | 226 | 3.5 | 6.1 | 0.00 | 0.02 | 0.01 | 71 | 1021.6 |
| 20260505034512 | 62 | 275 | 1.7 | 6.1 | 0.00 | 0.02 | 0.01 | 72 | 1021.5 |
| 20260505033010 | 62 | 264 | 1.7 | 5.2 | 0.00 | 0.02 | 0.01 | 71 | 1021.6 |
| 20260505031509 | 62 | 248 | 2.6 | 6.1 | 0.00 | 0.02 | 0.01 | 70 | 1021.7 |
| 20260505030006 | 62 | 214 | 1.7 | 6.1 | 0.00 | 0.02 | 0.01 | 71 | 1021.9 |
| 20260505024503 | 62 | 234 | 1.7 | 6.1 | 0.00 | 0.02 | 0.01 | 73 | 1022.0 |
| 20260505023103 | 61 | 246 | 2.6 | 5.2 | 0.00 | 0.02 | 0.01 | 72 | 1022.2 |
| 20260505021558 | 62 | 224 | 3.5 | 7.0 | 0.00 | 0.02 | 0.01 | 71 | 1022.4 |
| 20260505020057 | 62 | 275 | 2.6 | 6.1 | 0.00 | 0.02 | 0.01 | 75 | 1022.5 |
| 20260505014554 | 61 | 207 | 1.7 | 6.1 | 0.00 | 0.02 | 0.01 | 75 | 1022.7 |
| 20260505013056 | 61 | 211 | 2.6 | 7.0 | 0.00 | 0.02 | 0.01 | 74 | 1022.8 |
| 20260505011551 | 61 | 221 | 1.7 | 7.8 | 0.00 | 0.02 | 0.01 | 75 | 1022.8 |
| 20260505010048 | 61 | 226 | 2.6 | 6.1 | 0.00 | 0.02 | 0.01 | 77 | 1022.6 |
| 20260505004544 | 60 | 204 | 0.9 | 7.0 | 0.00 | 0.02 | 0.01 | 79 | 1022.6 |
| 20260505003144 | 59 | 245 | 1.7 | 7.0 | 0.00 | 0.02 | 0.01 | 82 | 1022.5 |
| 20260505001548 | 59 | 191 | 1.7 | 5.2 | 0.00 | 0.02 | 0.01 | 84 | 1022.4 |
| 20260505000039 | 58 | 288 | 1.7 | 7.8 | 0.00 | 0.02 | 0.01 | 87 | 1022.4 |
| 20260504234528 | 57 | 230 | 1.7 | 6.1 | 0.00 | 0.02 | 0.01 | 88 | 1022.5 |
| 20260504233025 | 56 | 241 | 3.5 | 6.1 | 0.00 | 0.02 | 0.01 | 89 | 1022.4 |
| 20260504231528 | 55 | 245 | 2.6 | 5.2 | 0.00 | 0.02 | 0.01 | 91 | 1022.2 |
| 20260504230018 | 54 | 229 | 2.6 | 6.1 | 0.00 | 0.02 | 0.01 | 93 | 1022.2 |
| 20260504224514 | 52 | 252 | 1.7 | 6.1 | 0.00 | 0.02 | 0.01 | 94 | 1022.0 |
| 20260504223008 | 51 | 240 | 1.7 | 4.3 | 0.00 | 0.02 | 0.01 | 94 | 1021.8 |
| 20260504221505 | 51 | 238 | 1.7 | 4.3 | 0.00 | 0.02 | 0.01 | 94 | 1021.7 |
| 20260504220100 | 50 | 258 | 1.7 | 5.2 | 0.00 | 0.02 | 0.01 | 94 | 1021.4 |
| 20260504214555 | 49 | 298 | 2.6 | 6.1 | 0.00 | 0.02 | 0.01 | 94 | 1021.4 |
| 20260504213050 | 49 | 273 | 2.6 | 6.1 | 0.00 | 0.02 | 0.01 | 94 | 1021.1 |
| 20260504211552 | 49 | 273 | 2.6 | 5.2 | 0.00 | 0.02 | 0.01 | 94 | 1020.9 |
| 20260504210104 | 49 | 265 | 2.6 | 5.2 | 0.00 | 0.02 | 0.01 | 94 | 1020.6 |
| 20260504204553 | 48 | 264 | 2.6 | 4.3 | 0.00 | 0.02 | 0.01 | 94 | 1020.4 |
| 20260504203048 | 48 | 273 | 1.7 | 3.5 | 0.00 | 0.02 | 0.01 | 93 | 1020.4 |
| 20260504201548 | 48 | 274 | 1.7 | 3.5 | 0.00 | 0.02 | 0.01 | 93 | 1020.3 |
| 20260504200042 | 48 | 272 | 1.7 | 2.6 | 0.00 | 0.02 | 0.01 | 93 | 1020.2 |
| 20260504194559 | 48 | 271 | 1.7 | 3.5 | 0.00 | 0.02 | 0.01 | 93 | 1020.1 |
| 20260504193039 | 49 | 279 | 1.7 | 3.5 | 0.00 | 0.02 | 0.01 | 93 | 1020.1 |
| 20260504191546 | 49 | 273 | 1.7 | 3.5 | 0.00 | 0.02 | 0.01 | 93 | 1019.9 |
| 20260504190044 | 49 | 273 | 1.7 | 5.2 | 0.01 | 0.02 | 0.01 | 93 | 1019.8 |
| 20260504184538 | 49 | 263 | 1.7 | 3.5 | 0.01 | 0.02 | 0.01 | 93 | 1019.6 |
| 20260504183032 | 49 | 250 | 1.7 | 3.5 | 0.01 | 0.02 | 0.01 | 93 | 1019.6 |
| 20260504181530 | 48 | 297 | 0.9 | 1.7 | 0.01 | 0.02 | 0.01 | 92 | 1019.5 |
| 20260504180035 | 48 | 315 | 0.0 | 1.7 | 0.00 | 0.01 | 0.00 | 92 | 1019.5 |
| 20260504174526 | 49 | 275 | 0.0 | 1.7 | 0.00 | 0.01 | 0.00 | 92 | 1019.4 |
| 20260504173024 | 50 | 275 | 1.7 | 3.5 | 0.00 | 0.01 | 0.00 | 92 | 1019.4 |
| 20260504171526 | 50 | 271 | 1.7 | 3.5 | 0.00 | 0.01 | 0.00 | 92 | 1019.3 |
| 20260504120114 | 51 | 318 | 0.0 | 1.7 | 0.00 | 0.01 | 0.01 | 91 | 1018.7 |
| 20260504081529 | 58 | 309 | 0.9 | 2.6 | 0.00 | 0.01 | 0.01 | 79 | 1015.6 |